TimeMST,TemperatureF,Dew PointF,Humidity,Sea Level PressureIn,VisibilityMPH,Wind Direction,Wind SpeedMPH,Gust SpeedMPH,PrecipitationIn,Events,Conditions,WindDirDegrees,DateUTC
12:53 AM,28.0,21.9,78,29.80,10.0,WNW,9.2,-,N/A,,Overcast,290,2013-03-04 07:53:00
1:53 AM,28.0,19.0,69,29.79,10.0,NW,10.4,-,N/A,,Overcast,310,2013-03-04 08:53:00
2:53 AM,27.0,16.0,63,29.80,10.0,NW,25.3,32.2,N/A,,Mostly Cloudy,310,2013-03-04 09:53:00
3:53 AM,24.1,12.0,60,29.81,10.0,NW,32.2,41.4,N/A,,Partly Cloudy,310,2013-03-04 10:53:00
4:53 AM,21.9,10.9,63,29.82,10.0,NW,27.6,34.5,N/A,,Clear,310,2013-03-04 11:53:00
5:53 AM,19.9,10.9,68,29.89,10.0,WNW,28.8,41.4,N/A,,Clear,300,2013-03-04 12:53:00
6:53 AM,19.0,10.0,68,29.95,10.0,NW,29.9,36.8,N/A,,Clear,310,2013-03-04 13:53:00
7:41 AM,19.4,10.4,68,29.86,10.0,WNW,27.6,38.0,N/A,,Mostly Cloudy,300,2013-03-04 14:41:00
7:53 AM,19.9,10.9,68,29.98,10.0,WNW,28.8,38.0,N/A,,Overcast,300,2013-03-04 14:53:00
8:42 AM,19.4,12.2,74,29.89,1.5,NW,24.2,31.1,0.00,Snow,Light Snow,310,2013-03-04 15:42:00
8:49 AM,19.4,15.8,86,29.90,0.5,NW,25.3,31.1,0.00,Fog-Snow,Snow,310,2013-03-04 15:49:00
8:53 AM,19.0,14.0,81,30.01,0.8,WNW,27.6,33.4,0.00,Snow,Light Snow,300,2013-03-04 15:53:00
9:03 AM,19.4,15.8,86,29.89,0.5,NW,26.5,32.2,0.00,Fog-Snow,Snow,310,2013-03-04 16:03:00
9:16 AM,19.4,12.2,74,29.90,1.0,WNW,25.3,41.4,0.00,Snow,Light Snow,300,2013-03-04 16:16:00
9:29 AM,19.4,10.4,68,29.90,2.5,NW,35.7,42.6,0.00,Snow,Light Snow,310,2013-03-04 16:29:00
9:36 AM,19.4,10.4,68,29.90,9.0,NW,34.5,43.7,0.00,,Overcast,310,2013-03-04 16:36:00
9:53 AM,19.9,12.9,74,30.04,7.0,NNW,26.5,42.6,0.00,,Overcast,330,2013-03-04 16:53:00
10:18 AM,19.4,12.2,74,29.92,1.8,NW,27.6,36.8,0.00,Snow,Light Snow,320,2013-03-04 17:18:00
10:34 AM,17.6,12.2,79,29.94,0.8,NNW,34.5,42.6,N/A,Snow,Light Snow,330,2013-03-04 17:34:00
10:42 AM,17.6,12.2,79,29.93,1.5,NW,36.8,44.9,0.00,Snow,Light Snow,320,2013-03-04 17:42:00
10:53 AM,18.0,12.9,81,30.07,1.2,NW,31.1,43.7,0.00,Snow,Light Snow,320,2013-03-04 17:53:00
11:00 AM,17.6,12.2,79,29.94,1.0,NW,33.4,41.4,0.00,Snow,Light Snow,320,2013-03-04 18:00:00
11:25 AM,19.4,12.2,74,29.96,2.5,NNW,32.2,44.9,0.00,Snow,Light Snow,330,2013-03-04 18:25:00
11:53 AM,19.0,12.9,77,30.09,1.5,NW,26.5,40.3,0.00,Snow,Light Snow,320,2013-03-04 18:53:00
12:04 PM,17.6,12.2,79,29.98,0.5,NW,33.4,44.9,0.00,Snow,Snow,320,2013-03-04 19:04:00
12:14 PM,19.4,14.0,80,29.98,1.0,NW,27.6,39.1,0.00,Snow,Light Snow,320,2013-03-04 19:14:00
12:41 PM,19.4,12.2,74,29.99,3.0,NW,31.1,42.6,0.00,Snow,Light Snow,320,2013-03-04 19:41:00
12:53 PM,19.9,12.9,74,30.11,4.0,NW,34.5,41.4,0.00,Snow,Light Snow,310,2013-03-04 19:53:00
1:11 PM,21.2,12.2,68,30.00,10.0,North,-9999.0,-,0.00,,Overcast,0,2013-03-04 20:11:00
1:18 PM,19.4,12.2,74,29.99,0.8,WNW,33.4,40.3,0.00,,Haze,300,2013-03-04 20:18:00
1:31 PM,19.4,12.2,74,30.00,-9999.0,NW,34.5,44.9,0.00,,Unknown,320,2013-03-04 20:31:00
1:40 PM,19.4,12.2,74,30.01,1.8,NW,33.4,42.6,0.00,Snow,Light Snow,320,2013-03-04 20:40:00
1:53 PM,19.9,14.0,78,30.14,1.5,NW,25.3,40.3,0.00,Snow,Light Snow,310,2013-03-04 20:53:00
1:59 PM,19.4,14.0,80,30.03,2.0,NW,32.2,39.1,0.00,Snow,Light Snow,320,2013-03-04 20:59:00
2:07 PM,19.4,14.0,80,30.03,2.0,NW,26.5,38.0,0.00,,Haze,310,2013-03-04 21:07:00
2:14 PM,19.4,14.0,80,30.03,1.5,NW,28.8,38.0,0.00,Snow,Light Snow,310,2013-03-04 21:14:00
2:28 PM,21.2,14.0,74,30.04,3.0,NW,31.1,41.4,0.00,Snow,Light Snow,310,2013-03-04 21:28:00
2:34 PM,19.4,14.0,80,30.05,2.5,NW,34.5,41.4,0.00,Snow,Light Snow,320,2013-03-04 21:34:00
2:53 PM,19.9,14.0,78,30.18,1.8,NW,34.5,41.4,0.00,Snow,Light Snow,320,2013-03-04 21:53:00
3:05 PM,21.2,14.0,74,30.06,2.5,North,-9999.0,-,0.00,Snow,Light Snow,0,2013-03-04 22:05:00
3:25 PM,19.4,14.0,80,30.06,3.0,NW,32.2,41.4,0.00,Snow,Light Snow,310,2013-03-04 22:25:00
3:32 PM,19.4,14.0,80,30.07,2.5,NW,27.6,39.1,0.00,Snow,Light Snow,310,2013-03-04 22:32:00
3:36 PM,19.4,12.2,74,30.08,3.0,NW,32.2,40.3,0.00,Snow,Light Snow,320,2013-03-04 22:36:00
3:44 PM,19.4,14.0,80,30.09,1.8,NW,29.9,38.0,0.00,Snow,Light Snow,310,2013-03-04 22:44:00
3:53 PM,19.0,14.0,81,30.24,1.8,NW,21.9,39.1,0.00,Snow,Light Snow,310,2013-03-04 22:53:00
4:06 PM,19.4,12.2,74,30.10,3.0,NW,29.9,34.5,0.00,Snow,Light Snow,320,2013-03-04 23:06:00
4:53 PM,19.0,12.0,74,30.27,6.0,NW,25.3,33.4,0.00,,Haze,320,2013-03-04 23:53:00
5:06 PM,19.4,12.2,74,30.14,9.0,NW,24.2,33.4,N/A,,Overcast,320,2013-03-05 00:06:00
5:14 PM,17.6,12.2,79,30.14,1.8,NW,26.5,32.2,0.00,Snow,Light Snow,320,2013-03-05 00:14:00
5:27 PM,17.6,14.0,86,30.15,3.0,NW,18.4,27.6,0.00,Snow,Light Snow,320,2013-03-05 00:27:00
5:34 PM,17.6,12.2,79,30.15,2.5,NW,27.6,35.7,0.00,Snow,Light Snow,320,2013-03-05 00:34:00
5:50 PM,17.6,12.2,79,30.16,4.0,NW,25.3,31.1,0.00,Snow,Light Snow,320,2013-03-05 00:50:00
5:53 PM,18.0,12.9,81,30.33,5.0,NW,26.5,-,0.00,,Haze,310,2013-03-05 00:53:00
6:05 PM,17.6,12.2,79,30.17,10.0,NW,24.2,33.4,N/A,,Overcast,320,2013-03-05 01:05:00
6:53 PM,17.1,10.0,74,30.35,10.0,NW,28.8,36.8,0.00,,Mostly Cloudy,310,2013-03-05 01:53:00
7:10 PM,17.6,10.4,73,30.19,10.0,NW,24.2,33.4,N/A,,Overcast,320,2013-03-05 02:10:00
7:30 PM,15.8,10.4,79,30.19,7.0,NW,20.7,29.9,0.00,Snow,Light Snow,320,2013-03-05 02:30:00
7:53 PM,15.1,10.9,84,30.38,10.0,NW,18.4,-,0.00,,Mostly Cloudy,320,2013-03-05 02:53:00
8:05 PM,15.8,10.4,79,30.21,10.0,NW,15.0,-,N/A,,Partly Cloudy,320,2013-03-05 03:05:00
8:53 PM,14.0,9.0,80,30.40,10.0,NW,16.1,25.3,N/A,,Scattered Clouds,320,2013-03-05 03:53:00
9:01 PM,15.8,10.4,79,30.23,10.0,NW,17.3,-,N/A,,Mostly Cloudy,310,2013-03-05 04:01:00
9:53 PM,15.1,10.9,84,30.42,7.0,NW,12.7,-,0.00,Snow,Light Snow,320,2013-03-05 04:53:00
10:53 PM,14.0,10.9,88,30.44,7.0,NNW,10.4,-,0.00,,Overcast,340,2013-03-05 05:53:00